Hourly Data Report for May 17, 2004

TORONTO CITY
ONTARIO

43°40'00.000" N
79°24'00.000" W
112.50 m
6158355
71508
XTO

Download Data

Hourly Data (May 2004)
Hourly Data Report for May 17, 2004
TIME
LST
Temp Definition
°C
Dew Point Definition
°C
Rel Hum Definition
%
Precip. Amount Definition
mm

Wind Dir Definition
10's deg

Wind Spd Definition
km/h
Visibility Definition
km
Stn Press Definition
kPa
Hmdx Definition


Wind Chill Definition


Weather Definition


00:00 10.7 8.4 86   LegendMM LegendMM LegendMM 101.44     LegendNANA
01:00 10.5 8.4 87   LegendMM LegendMM LegendMM 101.39     LegendNANA
02:00 10.6 8.5 87   LegendMM LegendMM LegendMM 101.34     LegendNANA
03:00 9.5 7.9 90   LegendMM LegendMM LegendMM 101.38     LegendNANA
04:00 8.7 7.7 93   LegendMM LegendMM LegendMM 101.41     LegendNANA
05:00 8.5 7.5 93   LegendMM LegendMM LegendMM 101.38     LegendNANA
06:00 9.6 8.0 90   LegendMM LegendMM LegendMM 101.37     LegendNANA
07:00 9.8 7.6 86   LegendMM LegendMM LegendMM 101.41     LegendNANA
08:00 12.2 7.9 75   LegendMM LegendMM LegendMM 101.40     LegendNANA
09:00 14.0 8.9 71   LegendMM LegendMM LegendMM 101.34     LegendNANA
10:00 15.5 9.7 68   LegendMM LegendMM LegendMM 101.31     LegendNANA
11:00 16.2 9.9 66   LegendMM LegendMM LegendMM 101.27     LegendNANA
12:00 16.5 10.7 69   LegendMM LegendMM LegendMM 101.21     LegendNANA
13:00 16.5 10.3 67   LegendMM LegendMM LegendMM 101.03     LegendNANA
14:00 16.7 11.2 70   LegendMM LegendMM LegendMM 101.02     LegendNANA
15:00 16.7 10.7 68   LegendMM LegendMM LegendMM 100.91     LegendNANA
16:00 17.8 11.7 67   LegendMM LegendMM LegendMM 100.76     LegendNANA
17:00 17.5 11.9 70   LegendMM LegendMM LegendMM 100.67     LegendNANA
18:00 16.8 11.9 73   LegendMM LegendMM LegendMM 100.65     LegendNANA
19:00 16.6 11.9 74   LegendMM LegendMM LegendMM 100.62     LegendNANA
20:00 16.9 12.1 73   LegendMM LegendMM LegendMM 100.58     LegendNANA
21:00 16.8 11.8 72   LegendMM LegendMM LegendMM 100.52     LegendNANA
22:00 15.7 11.7 77   LegendMM LegendMM LegendMM 100.48     LegendNANA
23:00 15.9 12.3 79   LegendMM LegendMM LegendMM 100.37     LegendNANA

Notes on Data Quality.

Legend

  • E = Estimated
  • M = Missing
  • NA = Not Available*
  • [empty] = Indicates an unobserved value
Date modified: